Regional Weather Roundup
Issued by NWS

Home | Current Version | Previous Version | Graphics & Text | Print | Product List | Glossary Off
Versions: 1 2 3 4 5 6 7 8 9 10 11 12 13 14 15 16 17 18 19 20 21 22 23 24 25 26 27 28 29 30 31 32 33 34 35 36 37 38 39 40 41 42 43 44 45 46 47 48 49 50

000
ASUS43 KMPX 270801
RWRMN
WEATHER ROUNDUP FOR MINNESOTA
NATIONAL WEATHER SERVICE TWIN CITIES/CHANHASSEN MN
300 AM CDT FRI MAY 27 2016


NOTE: "FAIR" INDICATES FEW OR NO CLOUDS BELOW 12,000 FEET WITH NO
SIGNIFICANT WEATHER AND/OR OBSTRUCTIONS TO VISIBILITY. N/A MEANS
CURRENT SKY AND/OR WEATHER CONDITIONS ARE NOT AVAILABLE.

MNZ060>063-068>070-270900-
   Twin Cities Metro

CITY           SKY/WX    TMP DP  RH WIND       PRES   REMARKS
TWIN CITIES    CLOUDY    69  55  60 SE5       29.83F
ST PAUL        CLOUDY    66  59  78 SE3       29.83F
CRYSTAL        CLOUDY    67  54  63 SE5       29.81F
BLAINE         CLOUDY    66  57  72 CALM      29.83F
EDEN PRAIRIE   CLOUDY    68  56  65 SE5       29.81F
SOUTH ST PAUL  CLOUDY    66  57  72 CALM      29.82F
LAKE ELMO      CLOUDY    63  57  82 CALM      29.84F
$$
MNZ001>005-007-008-013>017-022>024-027-028-270900-
   Northwest Minnesota

CITY           SKY/WX    TMP DP  RH WIND       PRES   REMARKS
BEMIDJI        CLOUDY    56  52  86 W7G21     29.83R
HALLOCK        CLEAR     52  52 100 W5        29.79R FOG
ROSEAU         CLEAR     54  48  82 SW7       29.81R
WARROAD        CLEAR     52  48  87 SW5       29.80R
THIEF RVR FALL MOCLDY    57  52  82 SW3       29.83R
CROOKSTON      CLOUDY    57  55  94 S5        29.82S
FOSSTON        CLOUDY    55  54  94 CALM      29.83F
DETROIT LAKES  CLOUDY    59  54  82 NW8       29.83S
MOORHEAD       CLOUDY    57  54  88 NE6       29.80F
PARK RAPIDS    PTCLDY    58  50  75 CALM      29.81S
MAHNOMEN       FAIR      55  53  94 N5        29.83R
$$
MNZ006-009>011-018-025>026-270900-
   North Central Minnesota

CITY           SKY/WX    TMP DP  RH WIND       PRES   REMARKS
BAUDETTE       CLEAR     51  50  96 S5        29.80S
FLAG ISLAND    CLEAR     55  54  94 SW9       29.77R
INTL FALLS     CLEAR     49  47  93 CALM      29.81R
WASKISH        MOCLDY    54  52  94 S3        29.81S
BIG FORK       CLOUDY    46  46 100 CALM      29.83S
LONGVILLE      CLEAR     48  48 100 CALM      29.83S
GRAND RAPIDS   PTCLDY    50  48  93 CALM      29.84S
CRANE LAKE     CLOUDY    45  45 100 CALM        N/A  FOG
ORR            CLOUDY    52  48  87 CALM      29.81S
COOK           CLOUDY    48  48 100 CALM      29.85R
WALKER         FAIR      52  51  97 CALM      29.81F
$$
MNZ012-019>021-037-270900-
   Northeast Minnesota

CITY           SKY/WX    TMP DP  RH WIND       PRES   REMARKS
DULUTH         CLOUDY    51  48  89 CALM      29.85F
ELY            CLOUDY    52  48  87 SE5       29.85S
HIBBING        CLOUDY    46  45  96 CALM      29.84S
EVELETH        CLOUDY    46  45  93 CALM      29.86R
DULUTH HARBOR  FOG       48  46  93 CALM      29.87S VSB 1/4
TWO HARBORS    CLOUDY    46  43  87 CALM      29.85S FOG
GRAND MARAIS     N/A     42  41  96 SW5       29.88R
G MARAIS ARPRT   N/A     48  46  93 CALM      29.88R FOG
$$
MNZ029>031-032-039>041-046>048-054>057-064-270900-
   West Central Minnesota

CITY           SKY/WX    TMP DP  RH WIND       PRES   REMARKS
FERGUS FALLS   CLEAR     61  52  72 E5        29.76F
WHEATON        CLEAR     57  54  88 E7        29.79F
MORRIS         CLEAR     57  48  72 NE7       29.79F
ALEXANDRIA     PTCLDY    60  49  66 SE3       29.81F
ELBOW LAKE     FAIR      60  53  77 CALM      29.81S
WADENA         CLEAR     54  50  87 CALM      29.81F
GLENWOOD       PTCLDY    59  52  77 CALM      29.80F
APPLETON       PTCLDY    59  52  77 CALM      29.78F
ORTONVILLE     CLOUDY    59  52  77 NE5       29.78F
MADISON        PTCLDY    59  52  77 N8        29.78F
WILLMAR        FAIR      61  55  82 SE5       29.79F
$$
MNZ033>034-036-042>043-049>051-058-059-270900-
   Central Minnesota

CITY           SKY/WX    TMP DP  RH WIND       PRES   REMARKS
ST CLOUD       CLOUDY    63  54  72 E3        29.81F
SAUK CENTRE    FAIR      54  51  91 E7        29.80F
PAYNESVILLE    CLOUDY    65  55  69 SE6       29.80F
AITKIN         CLOUDY    52  46  82 CALM      29.82S
PINE RIVER     CLOUDY    52  52 100 CALM      29.85F
BRAINERD       CLOUDY    56  51  84 CALM      29.82F
STAPLES        CLOUDY    52  48  87 CALM      29.81F
LITTLE FALLS   CLOUDY    55  52  88 CALM      29.81F
LITCHFIELD     CLOUDY    64  59  82 SE3       29.81F
BUFFALO        CLOUDY    64  55  70 CALM      29.82F
MAPLE LAKE     CLOUDY    64  58  83 CALM      29.83F
HUTCHINSON     PTCLDY    64  58  82 E3        29.81F
$$
MNZ037-044-045-052-053-270900-
   East Central Minnesota

CITY           SKY/WX    TMP DP  RH WIND       PRES   REMARKS
PRINCETON      CLOUDY    61  55  82 CALM      29.82F
MORA           CLOUDY    54  52  94 CALM      29.85F
CAMBRIDGE      CLOUDY    63  52  67 CALM      29.82S
RUSH CITY      CLOUDY    56  53  91 SE3       29.85S
MOOSE LAKE     CLOUDY    52  50  93 CALM      29.83F
HINCKLEY       FAIR      52  52 100 CALM      29.84S
CLOQUET        CLOUDY    46  45  93 CALM      29.85F
MCGREGOR       CLOUDY    52  50  93 CALM      29.84F
$$
MNZ071>073-080-081-089-090-097-098-270900-
   Southwest Minnesota

CITY           SKY/WX    TMP DP  RH WIND       PRES   REMARKS
MONTEVIDEO     CLOUDY    61  50  67 CALM      29.80S
GRANITE FALLS  PTCLDY    64  55  72 SE6       29.79F
CANBY          PTCLDY    59  55  85 CALM      29.79F
MARSHALL       PTCLDY    63  56  78 SW9       29.78F
REDWOOD FALLS  CLOUDY    64  56  75 CALM      29.77F
OLIVIA         CLOUDY    63  54  72 SE5       29.79S
PIPESTONE      PTCLDY    61  55  82 S6        29.81F
WINDOM         CLOUDY    63  57  82 CALM      29.80F
WORTHINGTON    MOCLDY    60  57  89 S3        29.82F
JACKSON        CLOUDY    61  55  82 S3        29.82F
TRACY          PTCLDY    63  58  84 SW9       29.79F
SLAYTON        CLOUDY    58  56  92 S3        29.81F
$$
MNZ065>067-074>077-082>085-091>093-270900-
   South Central Minnesota

CITY           SKY/WX    TMP DP  RH WIND       PRES   REMARKS
MANKATO        CLOUDY    64  57  77 S6        29.81F
NEW ULM        CLOUDY    64  57  77 SE8       29.80S
ST JAMES       CLOUDY    59  54  82 SE7       29.81F
FAIRMONT       CLOUDY    63  55  77 CALM      29.82F
GLENCOE        CLOUDY    66  61  82 CALM      29.79F
FARIBAULT      CLOUDY    66  57  72 CALM      29.83F
OWATONNA       CLOUDY    66  54  63 SE10      29.85F
WASECA         CLOUDY    63  54  72 SE13      29.84F
ALBERT LEA     CLOUDY    64  55  72 SE9       29.85S
$$
MNZ078>079-086>088-094>096-270900-
   Southeast Minnesota

CITY           SKY/WX    TMP DP  RH WIND       PRES   REMARKS
ROCHESTER      LGT RAIN  63  61  93 S6        29.88S
RED WING       MOCLDY    64  61  88 SE1       29.85S
STANTON        CLOUDY    67  57  69 S3        29.82F
DODGE CENTER   CLOUDY    63  57  82 SE7       29.87S
WINONA         CLOUDY    63  61  94 CALM      29.86F
AUSTIN         CLOUDY    63  57  82 CALM      29.85F
PRESTON        CLOUDY    61  58  89 N5        29.86F
$$
ABBREVIATIONS USED IN REMARKS
   TC - TEMPERATURES IN CELSIUS
  WCI - WIND CHILL INDEX
   HX - HEAT INDEX
  VSB - VISIBILITY
$$




USA.gov is the U.S. government's official web portal to all federal, state and local government web resources and services.